When you browse on this site, cookies collect data to enhance your experience and personalize the content and advertising you see.
Visit our Privacy Policy to learn more. By continuing to use the site, you agree to this use of cookies and data.
  • In Czech Republic
  • List of Countries
  • For 7 days
  • Water Temperature
  • Weather Map
  • Weather Widgets
  • user-avatar
    Login

    Hourly Weather Santa Bárbara

    Today, 23 October, Wednesday

    Time Temperature Precipitation Wind Pressure Humidity
    00:00 +24°C° 1.6 mm 1 mps 720 mmHg 97%
    01:00 +24°C° 0.7 mm 1 mps 720 mmHg 97%
    02:00 +21°C° 0.7 mm 0 mps 719 mmHg 97%
    03:00 +21°C° 0.7 mm 0 mps 719 mmHg 97%
    04:00 +21°C° 0.6 mm 0 mps 719 mmHg 97%
    05:00 +21°C° 0.6 mm 0 mps 719 mmHg 97%
    06:00 +20°C° 0.6 mm 0 mps 720 mmHg 97%
    07:00 +22°C° 0.1 mm 0 mps 720 mmHg 92%
    08:00 +24°C° 0.1 mm 0 mps 721 mmHg 87%
    09:00 +26°C° 0.1 mm 0 mps 722 mmHg 82%
    10:00 +26°C° 0.7 mm 0 mps 721 mmHg 83%
    11:00 +28°C° 0.7 mm 1 mps 720 mmHg 83%
    12:00 +29°C° 0.7 mm 1 mps 720 mmHg 84%
    13:00 +28°C° 1.5 mm 1 mps 719 mmHg 86%
    14:00 +28°C° 1.5 mm 1 mps 719 mmHg 89%
    15:00 +27°C° 1.5 mm 1 mps 718 mmHg 92%
    16:00 +26°C° 0.8 mm 1 mps 718 mmHg 94%
    17:00 +24°C° 0.8 mm 0 mps 719 mmHg 96%
    18:00 +23°C° 0.8 mm 0 mps 719 mmHg 98%
    19:00 +23°C° 0.1 mm 0 mps 719 mmHg 98%
    20:00 +22°C° 0.1 mm 0 mps 720 mmHg 98%
    21:00 +22°C° 0.1 mm 0 mps 721 mmHg 98%
    22:00 +22°C° 0.2 mm 0 mps 720 mmHg 97%
    23:00 +22°C° 0.2 mm 0 mps 720 mmHg 97%

    Tomorrow, 24 October, Thursday

    Time Temperature Precipitation Wind Pressure Humidity
    00:00 +24°C° 0.2 mm 1 mps 720 mmHg 97%
    01:00 +22°C° 0.1 mm 0 mps 720 mmHg 97%
    02:00 +21°C° 0.1 mm 0 mps 719 mmHg 97%
    03:00 +21°C° 0.1 mm 0 mps 719 mmHg 96%
    04:00 +21°C° 0 mm 0 mps 719 mmHg 96%
    05:00 +21°C° 0 mm 0 mps 719 mmHg 96%
    06:00 +21°C° 0 mm 0 mps 720 mmHg 96%
    07:00 +23°C° 0 mm 0 mps 720 mmHg 89%
    08:00 +25°C° 0 mm 0 mps 721 mmHg 83%
    09:00 +26°C° 0 mm 0 mps 722 mmHg 76%
    10:00 +28°C° 0 mm 0 mps 721 mmHg 69%
    11:00 +29°C° 0 mm 0 mps 720 mmHg 62%
    12:00 +33°C° 0 mm 1 mps 720 mmHg 54%
    13:00 +32°C° 0.5 mm 1 mps 719 mmHg 59%
    14:00 +32°C° 0.5 mm 1 mps 718 mmHg 64%
    15:00 +31°C° 0.5 mm 1 mps 718 mmHg 69%
    16:00 +29°C° 0.8 mm 1 mps 718 mmHg 78%
    17:00 +25°C° 0.8 mm 0 mps 718 mmHg 86%
    18:00 +23°C° 0.8 mm 0 mps 718 mmHg 94%
    19:00 +22°C° 0.5 mm 0 mps 719 mmHg 95%
    20:00 +22°C° 0.5 mm 0 mps 719 mmHg 96%
    21:00 +22°C° 0.5 mm 0 mps 720 mmHg 97%
    22:00 +21°C° 0.5 mm 0 mps 720 mmHg 97%
    23:00 +21°C° 0.5 mm 0 mps 720 mmHg 97%

    Day after tomorrow, 25 October, Friday

    Time Temperature Precipitation Wind Pressure Humidity
    00:00 +21°C° 0.5 mm 0 mps 719 mmHg 97%
    01:00 +21°C° 0.1 mm 0 mps 719 mmHg 97%
    02:00 +20°C° 0.1 mm 0 mps 719 mmHg 97%
    03:00 +20°C° 0.1 mm 0 mps 719 mmHg 97%
    04:00 +22°C° 0 mm 1 mps 719 mmHg 97%
    05:00 +22°C° 0 mm 1 mps 719 mmHg 97%
    06:00 +22°C° 0 mm 1 mps 719 mmHg 97%
    07:00 +22°C° 0 mm 0 mps 720 mmHg 88%
    08:00 +25°C° 0 mm 0 mps 721 mmHg 80%
    09:00 +27°C° 0 mm 0 mps 721 mmHg 72%
    10:00 +28°C° 0.1 mm 0 mps 721 mmHg 66%
    11:00 +30°C° 0.1 mm 0 mps 720 mmHg 60%
    12:00 +33°C° 0.1 mm 1 mps 720 mmHg 55%
    13:00 +33°C° 0.6 mm 1 mps 719 mmHg 58%
    14:00 +32°C° 0.6 mm 1 mps 718 mmHg 61%
    15:00 +32°C° 0.6 mm 1 mps 718 mmHg 64%
    16:00 +28°C° 0.7 mm 0 mps 718 mmHg 73%
    17:00 +25°C° 0.7 mm 0 mps 718 mmHg 83%
    18:00 +23°C° 0.7 mm 0 mps 718 mmHg 92%
    19:00 +23°C° 1 mm 0 mps 719 mmHg 93%
    20:00 +22°C° 1 mm 0 mps 719 mmHg 95%
    21:00 +22°C° 1 mm 0 mps 720 mmHg 96%
    22:00 +21°C° 0.7 mm 0 mps 719 mmHg 97%
    23:00 +21°C° 0.7 mm 0 mps 719 mmHg 97%

    26 October, Saturday

    Time Temperature Precipitation Wind Pressure Humidity
    00:00 +21°C° 0.7 mm 0 mps 719 mmHg 97%
    01:00 +21°C° 0.3 mm 0 mps 719 mmHg 97%
    02:00 +23°C° 0.3 mm 1 mps 719 mmHg 97%
    03:00 +22°C° 0.3 mm 1 mps 718 mmHg 97%
    04:00 +22°C° 0 mm 1 mps 719 mmHg 97%
    05:00 +22°C° 0 mm 1 mps 719 mmHg 97%
    06:00 +20°C° 0 mm 0 mps 719 mmHg 97%
    07:00 +23°C° 0 mm 0 mps 720 mmHg 88%
    08:00 +25°C° 0 mm 0 mps 720 mmHg 79%
    09:00 +28°C° 0 mm 0 mps 721 mmHg 70%
    10:00 +29°C° 0.1 mm 0 mps 720 mmHg 66%
    11:00 +32°C° 0.1 mm 1 mps 720 mmHg 62%
    12:00 +33°C° 0.1 mm 1 mps 719 mmHg 58%
    13:00 +32°C° 0.8 mm 1 mps 719 mmHg 66%
    14:00 +31°C° 0.8 mm 1 mps 718 mmHg 74%
    15:00 +28°C° 0.8 mm 0 mps 717 mmHg 82%
    16:00 +26°C° 1.8 mm 0 mps 718 mmHg 86%
    17:00 +25°C° 1.8 mm 0 mps 718 mmHg 91%
    18:00 +23°C° 1.8 mm 0 mps 718 mmHg 95%
    19:00 +23°C° 2.1 mm 0 mps 719 mmHg 96%
    20:00 +22°C° 2.1 mm 0 mps 720 mmHg 96%
    21:00 +22°C° 2.1 mm 0 mps 720 mmHg 97%
    22:00 +22°C° 1.1 mm 0 mps 720 mmHg 97%
    23:00 +22°C° 1.1 mm 0 mps 720 mmHg 97%

    27 October, Sunday

    Time Temperature Precipitation Wind Pressure Humidity
    00:00 +22°C° 1.1 mm 0 mps 720 mmHg 98%
    01:00 +21°C° 0.3 mm 0 mps 720 mmHg 98%
    02:00 +21°C° 0.3 mm 0 mps 720 mmHg 98%
    03:00 +21°C° 0.3 mm 0 mps 719 mmHg 98%
    04:00 +21°C° 0 mm 0 mps 720 mmHg 98%
    05:00 +21°C° 0 mm 0 mps 720 mmHg 98%
    06:00 +20°C° 0 mm 0 mps 720 mmHg 98%
    07:00 +22°C° 0 mm 0 mps 720 mmHg 93%
    08:00 +23°C° 0 mm 0 mps 721 mmHg 88%
    09:00 +25°C° 0 mm 0 mps 721 mmHg 83%
    10:00 +28°C° 0.1 mm 1 mps 721 mmHg 78%
    11:00 +29°C° 0.1 mm 1 mps 720 mmHg 74%
    12:00 +29°C° 0.1 mm 1 mps 720 mmHg 70%
    13:00 +29°C° 0.9 mm 1 mps 719 mmHg 76%
    14:00 +29°C° 0.9 mm 1 mps 719 mmHg 81%
    15:00 +28°C° 0.9 mm 1 mps 718 mmHg 87%
    16:00 +27°C° 0.7 mm 1 mps 719 mmHg 90%
    17:00 +26°C° 0.7 mm 1 mps 719 mmHg 94%
    18:00 +22°C° 0.7 mm 0 mps 719 mmHg 97%
    19:00 +22°C° 0.1 mm 0 mps 720 mmHg 97%
    20:00 +22°C° 0.1 mm 0 mps 720 mmHg 97%
    21:00 +21°C° 0.1 mm 0 mps 721 mmHg 98%
    22:00 +21°C° 0 mm 0 mps 721 mmHg 98%
    23:00 +21°C° 0 mm 0 mps 721 mmHg 98%

    28 October, Monday

    Time Temperature Precipitation Wind Pressure Humidity
    00:00 +21°C° 0 mm 0 mps 721 mmHg 98%
    01:00 +21°C° 0 mm 0 mps 720 mmHg 98%
    02:00 +20°C° 0 mm 0 mps 720 mmHg 98%
    03:00 +20°C° 0 mm 0 mps 720 mmHg 98%
    04:00 +20°C° 0 mm 0 mps 720 mmHg 98%
    05:00 +20°C° 0 mm 0 mps 720 mmHg 98%
    06:00 +20°C° 0 mm 0 mps 721 mmHg 98%
    07:00 +22°C° 0.1 mm 0 mps 721 mmHg 94%
    08:00 +23°C° 0.1 mm 0 mps 721 mmHg 91%
    09:00 +27°C° 0.1 mm 1 mps 722 mmHg 87%
    10:00 +28°C° 0.1 mm 1 mps 721 mmHg 79%
    11:00 +29°C° 0.1 mm 1 mps 721 mmHg 72%
    12:00 +30°C° 0.1 mm 1 mps 721 mmHg 65%
    13:00 +30°C° 0.7 mm 1 mps 720 mmHg 72%
    14:00 +29°C° 0.7 mm 1 mps 719 mmHg 80%
    15:00 +28°C° 0.7 mm 2 mps 718 mmHg 87%
    16:00 +27°C° 1.2 mm 1 mps 719 mmHg 91%
    17:00 +25°C° 1.2 mm 1 mps 719 mmHg 94%
    18:00 +22°C° 1.2 mm 0 mps 720 mmHg 98%
    19:00 +22°C° 0.5 mm 0 mps 720 mmHg 98%
    20:00 +21°C° 0.5 mm 0 mps 721 mmHg 98%
    21:00 +21°C° 0.5 mm 0 mps 721 mmHg 98%
    22:00 +21°C° 0 mm 0 mps 721 mmHg 98%
    23:00 +20°C° 0 mm 0 mps 721 mmHg 98%

    29 October, Tuesday

    Time Temperature Precipitation Wind Pressure Humidity
    00:00 +20°C° 0 mm 0 mps 721 mmHg 98%
    01:00 +20°C° 0 mm 0 mps 721 mmHg 98%
    02:00 +20°C° 0 mm 0 mps 720 mmHg 98%
    03:00 +20°C° 0 mm 0 mps 720 mmHg 98%
    04:00 +20°C° 0 mm 0 mps 720 mmHg 98%
    05:00 +20°C° 0 mm 0 mps 721 mmHg 98%
    06:00 +20°C° 0 mm 0 mps 721 mmHg 98%
    07:00 +21°C° 0 mm 0 mps 721 mmHg 93%
    08:00 +23°C° 0 mm 0 mps 722 mmHg 88%
    09:00 +25°C° 0 mm 0 mps 722 mmHg 83%
    10:00 +27°C° 0.6 mm 1 mps 722 mmHg 84%
    11:00 +27°C° 0.6 mm 1 mps 721 mmHg 85%
    12:00 +28°C° 0.6 mm 1 mps 721 mmHg 86%
    13:00 +28°C° 1.8 mm 1 mps 720 mmHg 88%
    14:00 +27°C° 1.8 mm 1 mps 719 mmHg 91%
    15:00 +27°C° 1.8 mm 1 mps 719 mmHg 94%
    16:00 +26°C° 1.1 mm 1 mps 719 mmHg 95%
    17:00 +25°C° 1.1 mm 1 mps 720 mmHg 96%
    18:00 +22°C° 1.1 mm 0 mps 720 mmHg 98%
    Show more